CW3224 Weather Reports


Display with metric or nautical units.
time (UTC)temp
F
wind
direction
speed
MPH
gust
MPH
rain 1hr
in
rain 24hr
in
rain mn
in
humidity
%
barometer
mb
20260509150448 45 187 0.0 0.0 0.02 0.06 0.06 90 1014.4
20260509145439 45 301 0.0 1.0 0.03 0.06 0.06 90 1014.6
20260509144438 45 301 0.0 0.0 0.04 0.06 0.06 90 1014.6
20260509143436 45 301 0.0 0.0 0.04 0.06 0.06 91 1014.6
20260509142437 44 301 1.0 4.0 0.04 0.05 0.05 90 1014.9
20260509141427 44 190 0.0 2.0 0.03 0.04 0.04 91 1014.9
20260509140427 44 301 0.0 1.0 0.03 0.04 0.04 91 1014.9
20260509135425 44 301 0.0 2.0 0.03 0.03 0.03 91 1014.8
20260509134427 43 301 0.0 1.0 0.02 0.02 0.02 90 1014.4
20260509133426 43 301 0.0 0.0 0.02 0.02 0.02 90 1014.4
20260509133352 42 301 0.0 0.0 0.01 0.01 0.01 90 1014.4
20260509131426 42 301 0.0 0.0 0.01 0.01 0.01 90 1014.4
20260509130424 42 301 0.0 0.0 0.01 0.01 0.01 90 1014.4
20260509125903 42 301 0.0 1.0 0.00 0.00 0.00 89 1014.5
20260509124424 41 301 0.0 2.0 0.00 0.00 0.00 89 1014.7
20260509123424 41 301 0.0 0.0 0.00 0.00 0.00 89 1014.7
20260509122423 41 301 0.0 0.0 0.00 0.00 0.00 89 1014.8
20260509121412 40 301 0.0 0.0 0.00 0.00 0.00 89 1014.8
20260509120412 40 301 0.0 0.0 0.00 0.00 0.00 90 1014.8
20260509115412 39 301 0.0 2.0 0.00 0.00 0.00 90 1014.9
20260509114412 38 301 0.0 1.0 0.00 0.00 0.00 90 1014.9
20260509113410 38 187 0.0 2.0 0.00 0.00 0.00 90 1014.9
20260509112410 38 301 1.0 3.0 0.00 0.00 0.00 90 1014.7
20260509111355 37 301 0.0 0.0 0.00 0.00 0.00 90 1014.9
20260509110829 36 301 0.0 0.0 0.00 0.00 0.00 89 1014.9
20260509105357 35 301 0.0 0.0 0.00 0.00 0.00 89 1014.6
20260509104356 35 301 0.0 0.0 0.00 0.00 0.00 89 1014.7
20260509103355 35 301 0.0 0.0 0.00 0.00 0.00 89 1014.7
20260509102839 34 109 0.0 0.0 0.00 0.00 0.00 88 1014.6
20260509101353 34 301 0.0 0.0 0.00 0.00 0.00 88 1014.4
20260509100354 33 108 0.0 0.0 0.00 0.00 0.00 87 1014.4
20260509095353 33 109 0.0 0.0 0.00 0.00 0.00 87 1014.1
20260509094837 33 108 0.0 0.0 0.00 0.00 0.00 87 1014.0
20260509093353 33 108 0.0 0.0 0.00 0.00 0.00 87 1014.0
20260509092355 33 109 0.0 0.0 0.00 0.00 0.00 87 1013.9
20260509091351 33 109 0.0 0.0 0.00 0.00 0.00 86 1013.9
20260509090351 33 109 0.0 0.0 0.00 0.00 0.00 86 1013.9
20260509085351 34 109 0.0 0.0 0.00 0.00 0.00 86 1013.9
20260509084351 34 109 0.0 0.0 0.00 0.00 0.00 86 1013.6
20260509084318 34 109 0.0 0.0 0.00 0.00 0.00 86 1013.6
20260509082352 34 109 0.0 0.0 0.00 0.00 0.00 86 1013.7
20260509081345 34 301 0.0 0.0 0.00 0.00 0.00 85 1013.8
20260509080824 35 301 0.0 0.0 0.00 0.00 0.00 85 1013.8
20260509075346 35 109 0.0 0.0 0.00 0.00 0.00 85 1013.9
20260509074345 35 109 0.0 0.0 0.00 0.00 0.00 85 1013.6
20260509073346 35 109 0.0 0.0 0.00 0.00 0.00 84 1013.6
20260509072343 35 109 0.0 0.0 0.00 0.00 0.00 84 1013.7
20260509071343 36 109 0.0 0.0 0.00 0.00 0.00 84 1013.6
20260509070823 36 108 0.0 0.0 0.00 0.00 0.00 84 1013.6
20260509065344 36 109 0.0 0.0 0.00 0.00 0.00 84 1013.7
20260509064345 36 109 0.0 0.0 0.00 0.00 0.00 84 1013.4
20260509063344 37 301 0.0 0.0 0.00 0.00 0.00 83 1013.4
20260509062344 37 301 0.0 0.0 0.00 0.00 0.00 83 1013.4
20260509061339 37 109 0.0 0.0 0.00 0.00 0.00 83 1013.5
20260509060339 37 301 0.0 0.0 0.00 0.00 0.00 82 1013.5
20260509055816 37 301 0.0 0.0 0.00 0.00 0.00 82 1013.7
20260509054337 37 109 0.0 0.0 0.00 0.00 0.00 82 1013.8
20260509053338 37 109 0.0 0.0 0.00 0.00 0.00 82 1013.8
20260509052338 38 109 0.0 0.0 0.00 0.00 0.00 81 1013.6
20260509051332 38 109 0.0 0.0 0.00 0.00 0.00 81 1013.4
20260509050326 38 108 0.0 0.0 0.00 0.00 0.00 80 1013.4
20260509045808 38 108 0.0 0.0 0.00 0.00 0.00 81 1013.4
20260509044326 38 108 1.0 2.0 0.00 0.00 0.00 81 1013.4
20260509043324 39 108 0.0 2.0 0.00 0.00 0.00 80 1013.4
20260509042326 39 108 1.0 2.0 0.00 0.00 0.00 79 1013.4
20260509041325 39 108 0.0 3.0 0.00 0.00 0.00 77 1013.2
20260509041238 40 108 0.0 0.0 0.00 0.00 0.00 75 1013.2
20260509035317 40 108 0.0 0.0 0.00 0.00 0.00 75 1013.0
20260509034317 40 108 0.0 0.0 0.00 0.00 0.00 74 1013.0
20260509033257 41 108 0.0 0.0 0.00 0.00 0.00 74 1013.0
20260509032244 41 108 0.0 0.0 0.00 0.00 0.00 73 1012.9
20260509031245 42 301 0.0 0.0 0.00 0.00 0.00 72 1012.8
20260509030243 42 109 0.0 0.0 0.00 0.00 0.00 71 1012.8
20260509025239 43 301 0.0 0.0 0.00 0.00 0.00 69 1012.8
20260509024237 43 301 0.0 0.0 0.00 0.00 0.00 68 1012.8
20260509023235 44 109 0.0 0.0 0.00 0.00 0.00 67 1012.8
20260509022224 44 109 0.0 0.0 0.00 0.00 0.00 66 1012.8
20260509021222 44 109 0.0 2.0 0.00 0.00 0.00 66 1012.3
20260509020219 45 301 0.0 2.0 0.00 0.00 0.00 66 1012.3
20260509015221 45 301 0.0 0.0 0.00 0.00 0.00 64 1012.2
20260509014700 46 108 0.0 0.0 0.00 0.00 0.00 64 1012.0
20260509013216 47 301 0.0 0.0 0.00 0.00 0.00 61 1012.0
20260509012216 47 301 0.0 0.0 0.00 0.00 0.00 60 1011.8
20260509011216 48 301 0.0 0.0 0.00 0.00 0.00 58 1011.4
20260509010216 48 301 0.0 0.0 0.00 0.00 0.00 57 1011.4
20260509005214 49 301 0.0 0.0 0.00 0.00 0.00 56 1011.2
20260509004208 49 108 0.0 0.0 0.00 0.00 0.00 54 1010.7
20260509003208 50 301 0.0 0.0 0.00 0.00 0.00 54 1010.7
20260509002207 51 301 0.0 0.0 0.00 0.00 0.00 52 1010.5
20260509001209 51 301 0.0 0.0 0.00 0.00 0.00 51 1010.3
20260509000208 52 301 0.0 3.0 0.00 0.00 0.00 50 1010.3
20260508235208 53 301 0.0 2.0 0.00 0.00 0.00 49 1010.1
20260508234647 53 301 2.0 8.0 0.00 0.00 0.00 47 1009.7
20260508233640 53 301 1.0 2.0 0.00 0.00 0.00 46 1009.7
20260508232205 54 273 2.0 6.0 0.00 0.00 0.00 44 1009.6
20260508231203 54 301 1.0 5.0 0.00 0.00 0.00 43 1009.2
20260508230202 55 301 2.0 4.0 0.00 0.00 0.00 44 1009.2
20260508225641 55 283 2.0 6.0 0.00 0.00 0.00 43 1009.1
20260508224157 55 301 2.0 8.0 0.00 0.00 0.00 43 1009.1
20260508223158 56 301 1.0 4.0 0.00 0.00 0.00 45 1009.1
20260508222155 56 301 2.0 4.0 0.00 0.00 0.00 43 1009.1
20260508221156 56 88 2.0 5.0 0.00 0.00 0.00 42 1009.0
20260508220156 56 301 1.0 5.0 0.00 0.00 0.00 45 1009.0
20260508215156 57 301 3.0 8.0 0.00 0.00 0.00 41 1009.0
20260508214156 57 260 2.0 6.0 0.00 0.00 0.00 41 1008.8
20260508213629 58 301 3.0 9.0 0.00 0.00 0.00 42 1008.8
20260508212157 58 301 2.0 8.0 0.00 0.00 0.00 41 1008.7
20260508211622 58 301 2.0 5.0 0.00 0.00 0.00 41 1008.6
20260508210145 58 244 2.0 5.0 0.00 0.00 0.00 40 1008.6
20260508205139 58 285 3.0 9.0 0.00 0.00 0.00 39 1008.6
20260508204615 58 277 2.0 6.0 0.00 0.00 0.00 39 1008.5
20260508204101 58 292 1.0 5.0 0.00 0.00 0.00 41 1008.5
20260508202127 58 158 2.0 5.0 0.00 0.00 0.00 41 1008.4
20260508201125 59 182 3.0 7.0 0.00 0.00 0.00 40 1008.4
20260508200123 59 275 3.0 9.0 0.00 0.00 0.00 44 1008.4
20260508195123 59 232 3.0 8.0 0.00 0.00 0.00 40 1008.5
20260508194602 59 200 3.0 14.0 0.00 0.00 0.00 42 1008.5
20260508193107 59 237 3.0 6.0 0.00 0.00 0.00 42 1008.5
20260508192103 60 329 2.0 8.0 0.00 0.00 0.00 41 1008.6
20260508191041 60 306 3.0 7.0 0.00 0.00 0.00 44 1008.6
20260508190039 60 272 3.0 8.0 0.00 0.00 0.00 45 1008.6
20260508185038 59 285 3.0 10.0 0.00 0.00 0.00 40 1008.6
20260508184034 60 134 3.0 9.0 0.00 0.00 0.00 43 1008.6
20260508183033 60 306 3.0 10.0 0.00 0.00 0.00 41 1008.6
20260508182033 60 286 3.0 8.0 0.00 0.00 0.00 39 1008.6
20260508181034 60 301 2.0 7.0 0.00 0.00 0.00 39 1008.3
20260508180020 59 269 2.0 5.0 0.00 0.00 0.00 41 1008.4
20260508175019 59 17 2.0 7.0 0.00 0.00 0.00 39 1008.4
20260508174500 60 296 3.0 7.0 0.00 0.00 0.00 41 1008.6
20260508173019 60 234 3.0 7.0 0.00 0.00 0.00 41 1008.6
20260508172020 60 243 2.0 6.0 0.00 0.00 0.00 42 1008.6
20260508171934 60 29 3.0 7.0 0.00 0.00 0.00 44 1008.4
20260508170451 59 227 3.0 13.0 0.00 0.00 0.00 44 1008.6
20260508165003 59 202 3.0 7.0 0.00 0.00 0.00 46 1008.6
20260508164003 59 227 3.0 7.0 0.00 0.00 0.00 41 1008.6
20260508163003 60 252 3.0 7.0 0.00 0.00 0.00 43 1008.5
20260508161957 60 292 2.0 5.0 0.00 0.00 0.00 44 1008.5
20260508161439 60 276 2.0 7.0 0.00 0.00 0.00 52 1008.6
20260508155956 61 114 2.0 7.0 0.00 0.00 0.00 44 1008.8
20260508155430 60 329 2.0 5.0 0.00 0.00 0.00 46 1008.8
20260508153952 60 318 3.0 7.0 0.00 0.00 0.00 47 1009.0
20260508152951 60 283 3.0 6.0 0.00 0.00 0.00 47 1009.1
20260508151952 59 287 3.0 7.0 0.00 0.00 0.00 46 1009.1